Station Historical Data
Daily Summary for May 25, 2017 Units:  Metric    English   Both
« Previous Day
Next Day »
Daily Weekly Monthly Yearly Custom
  High: Low: Average:
Temperature: 18.7 °C 12.9 °C 14.6 °C
Dew Point: 15.2 °C 11.5 °C 12.8 °C
Humidity: 93% 63% 89%
Wind Speed: 16.1km/h 0km/h 3.9km/h
Wind Gust: 20.9km/h - -
Wind- - East
Pressure: 1002.3 hPa 996.5 hPa -
Precipitation: 42.42 mm    
Historical Graphs
 
 
Tabular Data for May 25, 2017
Time Temperature Dew Point Pressure Wind Wind Speed Wind Gust Humidity Rainfall Rate (Hourly)
00:00 18.7 °C 11.5 °C 1002.3 hPa ESE 3.2 km/h 9.7 km/h 63% 0 mm
00:05 18.4 °C 11.5 °C 1001.9 hPa South 4.8 km/h 11.3 km/h 64% 0 mm
00:10 18.2 °C 11.8 °C 1002.3 hPa East 11.3 km/h 12.9 km/h 66% 0 mm
00:15 18 °C 11.8 °C 1002.3 hPa SE 4.8 km/h 12.9 km/h 67% 0 mm
00:20 17.8 °C 12 °C 1002.3 hPa SE 3.2 km/h 11.3 km/h 69% 0 mm
00:25 17.6 °C 12 °C 1002.3 hPa SE 3.2 km/h 12.9 km/h 70% 0.25 mm
00:30 17.2 °C 12.1 °C 1002.3 hPa SSE 6.4 km/h 12.9 km/h 72% 0.25 mm
00:35 16.9 °C 12.2 °C 1002.3 hPa SE 4.8 km/h 11.3 km/h 74% 0.25 mm
00:40 16.7 °C 12.3 °C 1002.3 hPa SSE 4.8 km/h 12.9 km/h 75% 0.51 mm
00:45 16.6 °C 12.3 °C 1002.3 hPa SE 3.2 km/h 12.9 km/h 76% 0.51 mm
00:50 16.5 °C 12.3 °C 1001.9 hPa SE 3.2 km/h 11.3 km/h 76% 0.51 mm
00:55 16.4 °C 12.4 °C 1001.9 hPa SE 3.2 km/h 6.4 km/h 77% 0.76 mm
01:00 16.3 °C 12.4 °C 1002.3 hPa ESE 3.2 km/h 11.3 km/h 78% 0.76 mm
01:05 16.1 °C 12.2 °C 1001.9 hPa ESE 3.2 km/h 11.3 km/h 78% 0.76 mm
01:10 15.9 °C 12.1 °C 1001.9 hPa ESE 3.2 km/h 12.9 km/h 78% 1.02 mm
01:15 15.8 °C 12.4 °C 1001.9 hPa East 1.6 km/h 8 km/h 80% 1.02 mm
01:20 15.7 °C 12.2 °C 1001.9 hPa ENE 3.2 km/h 9.7 km/h 80% 1.27 mm
01:25 15.6 °C 12.3 °C 1001.9 hPa SE 3.2 km/h 14.5 km/h 81% 1.02 mm
01:30 15.5 °C 12.3 °C 1001.9 hPa ESE 8 km/h 12.9 km/h 81% 1.02 mm
01:35 15.4 °C 12.3 °C 1001.6 hPa East 4.8 km/h 12.9 km/h 82% 1.02 mm
01:40 15.4 °C 12.3 °C 1001.6 hPa ENE 1.6 km/h 12.9 km/h 82% 1.02 mm
01:45 15.3 °C 12.3 °C 1001.6 hPa East 4.8 km/h 12.9 km/h 82% 1.02 mm
01:50 15.3 °C 12.4 °C 1001.6 hPa East 3.2 km/h 11.3 km/h 83% 1.02 mm
01:55 15.2 °C 12.3 °C 1001.6 hPa ENE 3.2 km/h 8 km/h 83% 0.76 mm
02:00 15.2 °C 12.5 °C 1001.6 hPa East 3.2 km/h 8 km/h 84% 0.76 mm
02:05 15.1 °C 12.4 °C 1001.6 hPa East 8 km/h 8 km/h 84% 0.76 mm
02:10 15.1 °C 12.4 °C 1001.6 hPa Calm   11.3 km/h 84% 0.51 mm
02:15 15.1 °C 12.4 °C 1001.6 hPa ENE 3.2 km/h 11.3 km/h 84% 0.51 mm
02:20 15.1 °C 12.4 °C 1001.2 hPa East 3.2 km/h 9.7 km/h 84% 0.25 mm
02:25 15.1 °C 12.4 °C 1001.2 hPa ENE 3.2 km/h 8 km/h 84% 0.25 mm
02:30 15.1 °C 12.4 °C 1001.2 hPa East 1.6 km/h 8 km/h 84% 0.25 mm
02:35 15 °C 12.5 °C 1001.2 hPa East 4.8 km/h 4.8 km/h 85% 0.25 mm
02:40 15 °C 12.3 °C 1001.2 hPa ESE 1.6 km/h 9.7 km/h 84% 0 mm
02:45 15 °C 12.3 °C 1001.2 hPa East 3.2 km/h 9.7 km/h 84% 0 mm
02:50 14.9 °C 12.4 °C 1001.2 hPa ENE 3.2 km/h 9.7 km/h 85% 0 mm
02:55 14.8 °C 12.3 °C 1001.2 hPa ENE 3.2 km/h 9.7 km/h 85% 0.25 mm
03:00 14.7 °C 12.4 °C 1001.2 hPa NE 3.2 km/h 9.7 km/h 86% 0.25 mm
03:05 14.7 °C 12.3 °C 1001.2 hPa Calm   8 km/h 86% 0.25 mm
03:10 14.7 °C 12.5 °C 1001.2 hPa East 1.6 km/h 4.8 km/h 87% 0.25 mm
03:15 14.6 °C 12.4 °C 1001.2 hPa East 3.2 km/h 6.4 km/h 87% 0.76 mm
03:20 14.6 °C 12.4 °C 1001.2 hPa ENE 3.2 km/h 6.4 km/h 87% 0.76 mm
03:25 14.6 °C 12.4 °C 1001.6 hPa ENE 3.2 km/h 4.8 km/h 87% 0.76 mm
03:30 14.6 °C 12.6 °C 1001.2 hPa ENE 1.6 km/h 8 km/h 88% 0.76 mm
03:35 14.6 °C 12.6 °C 1001.2 hPa East 1.6 km/h 9.7 km/h 88% 0.76 mm
03:40 14.5 °C 12.6 °C 1001.2 hPa East 4.8 km/h 8 km/h 88% 1.27 mm
03:45 14.4 °C 12.5 °C 1001.2 hPa East 3.2 km/h 4.8 km/h 88% 1.27 mm
03:50 14.4 °C 12.7 °C 1001.2 hPa East 1.6 km/h 4.8 km/h 89% 1.27 mm
03:55 14.4 °C 12.7 °C 1001.2 hPa East 3.2 km/h 8 km/h 89% 1.52 mm
04:00 14.4 °C 12.6 °C 1001.6 hPa East 3.2 km/h 11.3 km/h 89% 2.29 mm
04:05 14.3 °C 12.5 °C 1001.2 hPa ESE 3.2 km/h 11.3 km/h 89% 3.81 mm
04:10 14.2 °C 12.4 °C 1001.2 hPa ESE 3.2 km/h 11.3 km/h 89% 4.06 mm
04:15 14.2 °C 12.6 °C 1001.2 hPa ENE 1.6 km/h 9.7 km/h 90% 3.81 mm
04:20 14.1 °C 12.5 °C 1001.2 hPa East 3.2 km/h 11.3 km/h 90% 4.06 mm
04:25 14.1 °C 12.5 °C 1001.2 hPa ENE 1.6 km/h 8 km/h 90% 4.06 mm
04:30 14.1 °C 12.4 °C 1001.2 hPa NE 6.4 km/h 8 km/h 90% 4.06 mm
04:35 14.1 °C 12.4 °C 1001.2 hPa ENE 3.2 km/h 8 km/h 90% 4.32 mm
04:40 14 °C 12.4 °C 1001.2 hPa East 4.8 km/h 9.7 km/h 90% 3.81 mm
04:45 14 °C 12.4 °C 1001.2 hPa East 3.2 km/h 8 km/h 90% 3.81 mm
04:50 13.9 °C 12.3 °C 1001.2 hPa ENE 3.2 km/h 9.7 km/h 90% 3.81 mm
04:55 13.9 °C 12.3 °C 1000.9 hPa ENE 3.2 km/h 9.7 km/h 90% 3.3 mm
05:00 13.9 °C 12.3 °C 1000.9 hPa ENE 3.2 km/h 9.7 km/h 90% 2.54 mm
05:05 13.9 °C 12.3 °C 1000.9 hPa East 4.8 km/h 12.9 km/h 90% 1.27 mm
05:10 13.9 °C 12.3 °C 1000.9 hPa East 4.8 km/h 16.1 km/h 90% 1.27 mm
05:15 13.9 °C 12.3 °C 1000.9 hPa East 3.2 km/h 16.1 km/h 90% 1.27 mm
05:20 13.9 °C 12.3 °C 1000.9 hPa East 3.2 km/h 11.3 km/h 90% 1.27 mm
05:25 13.9 °C 12.3 °C 1000.9 hPa East 3.2 km/h 8 km/h 90% 1.52 mm
05:30 13.8 °C 12.2 °C 1000.9 hPa Calm   3.2 km/h 90% 1.52 mm
05:35 13.8 °C 12.2 °C 1000.9 hPa ENE 1.6 km/h 16.1 km/h 90% 1.52 mm
05:40 13.8 °C 12.2 °C 1000.9 hPa East 3.2 km/h 9.7 km/h 90% 1.78 mm
05:45 13.8 °C 12.2 °C 1000.9 hPa East 3.2 km/h 4.8 km/h 90% 2.03 mm
05:50 13.8 °C 12.2 °C 1000.6 hPa East 3.2 km/h 11.3 km/h 90% 2.29 mm
05:55 13.7 °C 12.1 °C 1000.6 hPa ENE 3.2 km/h 11.3 km/h 90% 2.54 mm
06:00 13.7 °C 12.1 °C 1000.6 hPa East 3.2 km/h 9.7 km/h 90% 2.29 mm
06:05 13.7 °C 12.1 °C 1000.6 hPa East 4.8 km/h 12.9 km/h 90% 2.54 mm
06:15 13.6 °C 12.2 °C 1000.6 hPa East 4.8 km/h 11.3 km/h 91% 2.29 mm
06:20 13.7 °C 12.2 °C 1000.6 hPa East 4.8 km/h 11.3 km/h 91% 2.03 mm
06:25 13.6 °C 12.2 °C 1000.6 hPa East 4.8 km/h 11.3 km/h 91% 2.03 mm
06:30 13.6 °C 12.1 °C 1000.2 hPa East 4.8 km/h 9.7 km/h 91% 2.03 mm
06:35 13.6 °C 12.1 °C 1000.2 hPa ENE 4.8 km/h 9.7 km/h 91% 1.78 mm
06:40 13.5 °C 12.1 °C 1000.2 hPa ENE 1.6 km/h 9.7 km/h 91% 1.78 mm
06:45 13.6 °C 12.1 °C 1000.2 hPa ESE 4.8 km/h 12.9 km/h 91% 1.52 mm
06:50 13.5 °C 12.1 °C 1000.2 hPa ENE 4.8 km/h 12.9 km/h 91% 1.52 mm
06:55 13.4 °C 11.8 °C 1000.2 hPa ENE 4.8 km/h 9.7 km/h 90% 1.27 mm
07:00 13.4 °C 12 °C 1000.2 hPa ENE 3.2 km/h 8 km/h 91% 1.27 mm
07:05 13.4 °C 12 °C 999.9 hPa ENE 4.8 km/h 8 km/h 91% 1.27 mm
07:10 13.5 °C 12.1 °C 999.9 hPa ENE 3.2 km/h 9.7 km/h 91% 1.27 mm
07:15 13.6 °C 12.1 °C 999.9 hPa ENE 3.2 km/h 9.7 km/h 91% 1.02 mm
07:20 13.7 °C 12.2 °C 999.9 hPa ENE 4.8 km/h 11.3 km/h 91% 1.27 mm
07:25 13.7 °C 12.2 °C 999.9 hPa ENE 4.8 km/h 12.9 km/h 91% 1.27 mm
07:30 13.7 °C 12.2 °C 999.9 hPa ENE 4.8 km/h 12.9 km/h 91% 1.52 mm
07:35 13.7 °C 12.2 °C 999.9 hPa ENE 4.8 km/h 12.9 km/h 91% 1.78 mm
07:40 13.6 °C 12.2 °C 999.9 hPa ENE 4.8 km/h 11.3 km/h 91% 1.78 mm
07:45 13.6 °C 12.1 °C 999.9 hPa East 8 km/h 11.3 km/h 91% 2.03 mm
07:50 13.5 °C 12.1 °C 999.9 hPa ENE 4.8 km/h 12.9 km/h 91% 1.78 mm
07:55 13.5 °C 12.1 °C 999.9 hPa ENE 4.8 km/h 12.9 km/h 91% 2.29 mm
08:00 13.4 °C 12 °C 999.5 hPa ENE 3.2 km/h 12.9 km/h 91% 2.54 mm
08:05 13.3 °C 11.9 °C 999.5 hPa East 3.2 km/h 14.5 km/h 91% 2.54 mm
08:10 13.3 °C 11.9 °C 999.5 hPa East 3.2 km/h 12.9 km/h 91% 2.79 mm
08:15 13.3 °C 11.9 °C 999.5 hPa NE 6.4 km/h 11.3 km/h 91% 3.3 mm
08:20 13.3 °C 11.8 °C 999.5 hPa ENE 4.8 km/h 12.9 km/h 91% 3.3 mm
08:25 13.2 °C 11.8 °C 999.5 hPa ENE 6.4 km/h 14.5 km/h 91% 3.56 mm
08:30 13.3 °C 11.8 °C 999.5 hPa ENE 4.8 km/h 14.5 km/h 91% 3.56 mm
08:35 13.3 °C 12.1 °C 999.5 hPa ENE 4.8 km/h 12.9 km/h 92% 3.81 mm
08:40 13.3 °C 12.1 °C 999.5 hPa ENE 6.4 km/h 14.5 km/h 92% 3.81 mm
08:45 13.3 °C 12 °C 999.5 hPa ENE 6.4 km/h 14.5 km/h 92% 3.81 mm
08:50 13.3 °C 12.1 °C 999.5 hPa ENE 4.8 km/h 11.3 km/h 92% 4.06 mm
08:55 13.3 °C 12.1 °C 999.5 hPa ESE 4.8 km/h 16.1 km/h 92% 4.06 mm
09:00 13.3 °C 12 °C 999.9 hPa East 3.2 km/h 9.7 km/h 92% 4.32 mm
09:05 13.2 °C 11.9 °C 999.9 hPa East 9.7 km/h 12.9 km/h 92% 4.83 mm
09:10 13.2 °C 11.9 °C 999.9 hPa ENE 4.8 km/h 11.3 km/h 92% 5.08 mm
09:15 13.2 °C 11.9 °C 999.9 hPa East 4.8 km/h 14.5 km/h 92% 5.08 mm
09:20 13.1 °C 11.8 °C 999.5 hPa ENE 6.4 km/h 14.5 km/h 92% 5.33 mm
09:25 13.1 °C 11.8 °C 999.5 hPa ENE 6.4 km/h 14.5 km/h 92% 5.33 mm
09:30 13.1 °C 11.8 °C 999.5 hPa ENE 6.4 km/h 14.5 km/h 92% 5.59 mm
09:35 13 °C 11.7 °C 999.5 hPa ENE 6.4 km/h 14.5 km/h 92% 5.59 mm
09:40 13.1 °C 11.8 °C 999.5 hPa ENE 6.4 km/h 14.5 km/h 92% 5.84 mm
09:45 13 °C 11.7 °C 999.5 hPa East 4.8 km/h 14.5 km/h 92% 5.84 mm
09:50 13 °C 11.7 °C 999.5 hPa East 9.7 km/h 20.9 km/h 92% 5.84 mm
09:55 13 °C 11.7 °C 999.2 hPa ENE 6.4 km/h 20.9 km/h 92% 5.84 mm
10:00 13 °C 11.7 °C 999.2 hPa ENE 8 km/h 17.7 km/h 92% 5.59 mm
10:05 13 °C 11.7 °C 999.2 hPa East 11.3 km/h 14.5 km/h 92% 5.33 mm
10:10 13 °C 11.7 °C 999.2 hPa East 4.8 km/h 14.5 km/h 92% 5.33 mm
10:15 13.1 °C 11.8 °C 999.2 hPa NE 3.2 km/h 16.1 km/h 92% 5.08 mm
10:20 13.1 °C 11.8 °C 999.2 hPa ENE 6.4 km/h 16.1 km/h 92% 5.08 mm
10:25 13 °C 11.7 °C 998.9 hPa ENE 6.4 km/h 14.5 km/h 92% 5.08 mm
10:30 13 °C 11.7 °C 999.2 hPa ENE 6.4 km/h 17.7 km/h 92% 5.08 mm
10:35 12.9 °C 11.7 °C 999.2 hPa ENE 4.8 km/h 16.1 km/h 92% 5.33 mm
10:40 12.9 °C 11.7 °C 998.9 hPa NE 6.4 km/h 14.5 km/h 92% 5.33 mm
10:45 12.9 °C 11.7 °C 999.2 hPa SE 1.6 km/h 14.5 km/h 92% 5.59 mm
10:50 12.9 °C 11.7 °C 999.2 hPa East 4.8 km/h 14.5 km/h 92% 6.1 mm
10:55 12.9 °C 11.7 °C 999.2 hPa East 4.8 km/h 14.5 km/h 92% 6.35 mm
11:00 12.9 °C 11.6 °C 999.2 hPa East 4.8 km/h 11.3 km/h 92% 7.11 mm
11:05 12.9 °C 11.6 °C 999.2 hPa East 4.8 km/h 11.3 km/h 92% 7.37 mm
11:10 12.9 °C 11.7 °C 998.9 hPa East 4.8 km/h 9.7 km/h 92% 7.37 mm
11:15 12.9 °C 11.7 °C 998.9 hPa ENE 4.8 km/h 16.1 km/h 92% 7.37 mm
11:20 12.9 °C 11.7 °C 998.9 hPa ENE 4.8 km/h 16.1 km/h 92% 7.11 mm
11:25 12.9 °C 11.7 °C 998.9 hPa ENE 6.4 km/h 14.5 km/h 92% 6.86 mm
11:30 12.9 °C 11.7 °C 998.9 hPa NE 9.7 km/h 16.1 km/h 92% 6.6 mm
11:35 12.9 °C 11.7 °C 998.9 hPa East 4.8 km/h 12.9 km/h 92% 6.1 mm
11:40 13 °C 11.7 °C 998.9 hPa NE 4.8 km/h 14.5 km/h 92% 5.84 mm
11:45 13 °C 11.7 °C 998.9 hPa ENE 6.4 km/h 11.3 km/h 92% 5.59 mm
11:50 12.9 °C 11.7 °C 998.9 hPa NE 6.4 km/h 12.9 km/h 92% 5.08 mm
11:55 12.9 °C 11.7 °C 998.9 hPa ENE 4.8 km/h 12.9 km/h 92% 4.57 mm
12:00 12.9 °C 11.7 °C 998.9 hPa ENE 4.8 km/h 11.3 km/h 92% 4.06 mm
12:05 12.9 °C 11.7 °C 998.9 hPa ENE 6.4 km/h 12.9 km/h 92% 3.81 mm
12:10 13 °C 11.7 °C 998.9 hPa East 4.8 km/h 11.3 km/h 92% 4.06 mm
12:15 13.1 °C 11.8 °C 998.9 hPa NE 1.6 km/h 9.7 km/h 92% 4.06 mm
12:20 13.1 °C 11.9 °C 998.9 hPa ENE 4.8 km/h 11.3 km/h 93% 4.06 mm
12:25 13.1 °C 11.8 °C 998.9 hPa ENE 4.8 km/h 11.3 km/h 92% 3.81 mm
12:30 13.2 °C 12.1 °C 998.9 hPa NE 1.6 km/h 12.9 km/h 93% 3.81 mm
12:35 13.3 °C 12.2 °C 998.9 hPa NE 4.8 km/h 9.7 km/h 93% 3.56 mm
12:40 13.4 °C 12.1 °C 998.5 hPa NE 6.4 km/h 11.3 km/h 92% 3.3 mm
12:45 13.3 °C 12.1 °C 998.9 hPa East 4.8 km/h 12.9 km/h 92% 3.05 mm
12:50 13.4 °C 12.1 °C 998.5 hPa ENE 6.4 km/h 14.5 km/h 92% 2.79 mm
12:55 13.4 °C 12.2 °C 998.5 hPa ENE 6.4 km/h 14.5 km/h 92% 2.29 mm
13:00 13.6 °C 12.3 °C 998.5 hPa ENE 6.4 km/h 12.9 km/h 92% 1.78 mm
13:05 13.8 °C 12.5 °C 998.5 hPa NNE 9.7 km/h 14.5 km/h 92% 1.27 mm
13:10 14.2 °C 12.9 °C 998.5 hPa NE 4.8 km/h 16.1 km/h 92% 0.76 mm
13:15 14.5 °C 13.1 °C 998.5 hPa ENE 8 km/h 16.1 km/h 91% 0.51 mm
13:20 14.8 °C 13.4 °C 998.5 hPa ENE 8 km/h 16.1 km/h 91% 0.25 mm
13:25 15.1 °C 13.3 °C 998.2 hPa NE 8 km/h 16.1 km/h 89% 0.25 mm
13:30 15.5 °C 13.9 °C 998.2 hPa ENE 8 km/h 16.1 km/h 90% 0 mm
13:35 15.8 °C 13.8 °C 998.2 hPa NE 4.8 km/h 11.3 km/h 88% 0 mm
13:40 15.9 °C 13.6 °C 998.2 hPa ENE 6.4 km/h 14.5 km/h 86% 0 mm
13:45 15.7 °C 13.3 °C 998.2 hPa ESE 3.2 km/h 12.9 km/h 86% 0 mm
13:50 15.4 °C 13.1 °C 998.2 hPa ENE 6.4 km/h 12.9 km/h 86% 0 mm
13:55 15.4 °C 13.1 °C 998.2 hPa East 3.2 km/h 14.5 km/h 86% 0 mm
14:00 15.7 °C 13.4 °C 998.2 hPa ESE 1.6 km/h 8 km/h 86% 0 mm
14:05 15.7 °C 13.5 °C 998.2 hPa ENE 4.8 km/h 11.3 km/h 87% 0 mm
14:10 15.6 °C 13.4 °C 998.2 hPa ENE 1.6 km/h 9.7 km/h 87% 0 mm
14:15 15.6 °C 13.6 °C 998.2 hPa ENE 4.8 km/h 12.9 km/h 88% 0 mm
14:20 15.7 °C 13.9 °C 997.9 hPa ENE 4.8 km/h 12.9 km/h 89% 0 mm
14:25 15.7 °C 13.9 °C 997.9 hPa ENE 3.2 km/h 9.7 km/h 89% 0 mm
14:30 15.8 °C 14 °C 997.9 hPa ENE 3.2 km/h 9.7 km/h 89% 0.25 mm
14:35 15.6 °C 13.7 °C 997.9 hPa ENE 4.8 km/h 11.3 km/h 89% 0.25 mm
14:40 15.5 °C 13.9 °C 997.9 hPa ENE 4.8 km/h 11.3 km/h 90% 0.25 mm
14:45 15.7 °C 14.1 °C 997.9 hPa ENE 4.8 km/h 16.1 km/h 90% 0.25 mm
14:50 15.7 °C 14.1 °C 997.9 hPa ENE 4.8 km/h 16.1 km/h 90% 0.25 mm
14:55 16.1 °C 14.4 °C 997.5 hPa East 3.2 km/h 14.5 km/h 90% 0.25 mm
15:00 16.2 °C 14.4 °C 997.5 hPa East 11.3 km/h 16.1 km/h 89% 0.25 mm
15:05 16.2 °C 14.5 °C 997.5 hPa East 12.9 km/h 17.7 km/h 90% 0.25 mm
15:10 16.3 °C 14.4 °C 997.5 hPa NE 4.8 km/h 17.7 km/h 89% 0.25 mm
15:15 16.3 °C 14.4 °C 997.5 hPa ENE 4.8 km/h 14.5 km/h 89% 0.25 mm
15:20 16.4 °C 14.6 °C 997.2 hPa ENE 8 km/h 14.5 km/h 89% 0.25 mm
15:25 16.5 °C 14.5 °C 997.2 hPa ENE 8 km/h 17.7 km/h 88% 0.25 mm
15:30 16.7 °C 14.7 °C 997.2 hPa ENE 8 km/h 17.7 km/h 88% 0 mm
15:35 16.8 °C 14.6 °C 997.2 hPa ENE 8 km/h 19.3 km/h 87% 0 mm
15:40 16.8 °C 14.5 °C 997.2 hPa ENE 12.9 km/h 17.7 km/h 86% 0 mm
15:45 16.8 °C 14.7 °C 996.8 hPa ENE 6.4 km/h 14.5 km/h 87% 0 mm
15:55 16.5 °C 14.3 °C 996.8 hPa ENE 6.4 km/h 14.5 km/h 87% 0 mm
16:00 16.3 °C 14.3 °C 996.8 hPa NNE 8 km/h 17.7 km/h 88% 0 mm
16:05 16.2 °C 14.2 °C 996.8 hPa ENE 16.1 km/h 19.3 km/h 88% 0 mm
16:10 16.2 °C 14.2 °C 996.8 hPa NE 9.7 km/h 16.1 km/h 88% 0 mm
16:15 16.2 °C 14.3 °C 996.8 hPa ENE 6.4 km/h 16.1 km/h 89% 0.25 mm
16:20 16 °C 14.2 °C 997.2 hPa ENE 3.2 km/h 12.9 km/h 89% 2.03 mm
16:25 15.9 °C 14.1 °C 997.2 hPa NE 1.6 km/h 12.9 km/h 89% 2.79 mm
16:30 15.8 °C 14.2 °C 997.2 hPa Calm   4.8 km/h 90% 4.06 mm
16:35 15.7 °C 14.1 °C 996.8 hPa Calm   3.2 km/h 90% 4.83 mm
16:40 16.3 °C 15 °C 996.8 hPa NE 3.2 km/h 6.4 km/h 92% 4.83 mm
16:45 16.3 °C 14.8 °C 996.8 hPa NE 3.2 km/h 6.4 km/h 91% 4.83 mm
16:50 16.4 °C 14.8 °C 996.8 hPa NE 3.2 km/h 8 km/h 90% 4.83 mm
16:55 16.7 °C 15.2 °C 996.8 hPa ENE 1.6 km/h 8 km/h 91% 4.83 mm
17:00 16.6 °C 14.9 °C 996.8 hPa ENE 1.6 km/h 6.4 km/h 90% 4.83 mm
17:05 16.7 °C 14.8 °C 996.8 hPa NE 3.2 km/h 6.4 km/h 89% 4.83 mm
17:10 16.6 °C 14.8 °C 996.8 hPa NE 6.4 km/h 8 km/h 89% 4.83 mm
17:15 16.5 °C 14.3 °C 996.8 hPa NE 3.2 km/h 8 km/h 87% 4.57 mm
17:20 16.7 °C 14.7 °C 996.8 hPa ENE 3.2 km/h 3.2 km/h 88% 2.79 mm
17:25 16.9 °C 14.7 °C 996.8 hPa NE 1.6 km/h 8 km/h 87% 2.03 mm
17:30 17.1 °C 15.1 °C 996.8 hPa NE 3.2 km/h 4.8 km/h 88% 0.76 mm
17:35 17.2 °C 15.2 °C 996.5 hPa Calm   4.8 km/h 88% 0 mm
17:40 17.3 °C 15.1 °C 996.8 hPa Calm   6.4 km/h 87% 0 mm
17:45 17.3 °C 15.1 °C 996.8 hPa NE 8 km/h 11.3 km/h 87% 0 mm
17:50 17.1 °C 14.9 °C 996.8 hPa ENE 3.2 km/h 11.3 km/h 87% 0 mm
17:55 17 °C 14.8 °C 996.8 hPa ENE 4.8 km/h 11.3 km/h 87% 0 mm
18:00 16.9 °C 14.8 °C 996.8 hPa ENE 3.2 km/h 11.3 km/h 87% 0 mm
18:05 16.8 °C 14.8 °C 996.8 hPa Calm   3.2 km/h 88% 0 mm
18:10 16.2 °C 13.7 °C 996.8 hPa Calm   14.5 km/h 85% 0.76 mm
18:15 15.7 °C 13.3 °C 996.8 hPa Calm   6.4 km/h 86% 1.02 mm
18:20 15.6 °C 13.6 °C 996.8 hPa SSW 1.6 km/h 6.4 km/h 88% 1.02 mm
18:25 15.7 °C 13.9 °C 996.8 hPa SSW 1.6 km/h 4.8 km/h 89% 1.02 mm
18:30 15.9 °C 14.3 °C 997.2 hPa Calm   3.2 km/h 90% 1.02 mm
18:35 15.7 °C 13.9 °C 997.2 hPa NE 11.3 km/h 11.3 km/h 89% 1.02 mm
18:40 15.3 °C 13.6 °C 997.2 hPa ENE 6.4 km/h 14.5 km/h 89% 1.02 mm
18:45 15.1 °C 13.3 °C 997.2 hPa ENE 3.2 km/h 12.9 km/h 89% 1.02 mm
18:50 15 °C 13.4 °C 997.5 hPa ENE 4.8 km/h 12.9 km/h 90% 1.02 mm
18:55 14.9 °C 13.3 °C 997.5 hPa NE 3.2 km/h 8 km/h 90% 1.02 mm
19:00 14.7 °C 13.3 °C 997.5 hPa NNE 3.2 km/h 9.7 km/h 91% 1.27 mm
19:05 14.7 °C 13.2 °C 997.5 hPa NNE 1.6 km/h 4.8 km/h 91% 1.27 mm
19:10 14.7 °C 13.2 °C 997.5 hPa ENE 4.8 km/h 6.4 km/h 91% 0.51 mm
19:15 14.6 °C 13.1 °C 997.5 hPa NE 1.6 km/h 8 km/h 91% 0.25 mm
19:20 14.6 °C 13.3 °C 997.5 hPa ENE 3.2 km/h 8 km/h 92% 0.25 mm
19:25 14.4 °C 13.2 °C 997.9 hPa NE 4.8 km/h 9.7 km/h 92% 0.25 mm
19:30 14.5 °C 13.2 °C 997.9 hPa NE 3.2 km/h 9.7 km/h 92% 0.25 mm
19:35 14.6 °C 13.3 °C 997.9 hPa NE 3.2 km/h 9.7 km/h 92% 0.25 mm
19:40 14.4 °C 13.2 °C 997.9 hPa Calm   8 km/h 92% 0.25 mm
19:45 14.4 °C 13.2 °C 997.9 hPa NE 3.2 km/h 8 km/h 92% 0.25 mm
19:50 14.3 °C 13.1 °C 998.2 hPa ENE 4.8 km/h 9.7 km/h 92% 0.25 mm
19:55 14.3 °C 13.1 °C 998.2 hPa ENE 4.8 km/h 9.7 km/h 92% 0.25 mm
20:00 14.4 °C 13.2 °C 998.2 hPa ENE 3.2 km/h 8 km/h 92% 0 mm
20:05 14.5 °C 13.2 °C 998.2 hPa Calm   3.2 km/h 92% 0 mm
20:10 14.6 °C 13.3 °C 998.2 hPa Calm   4.8 km/h 92% 0 mm
20:15 14.6 °C 13.3 °C 998.5 hPa Calm   8 km/h 92% 0 mm
20:20 14.6 °C 13.3 °C 998.5 hPa SE 1.6 km/h 6.4 km/h 92% 0 mm
20:25 14.5 °C 13.2 °C 998.5 hPa SE 1.6 km/h 6.4 km/h 92% 0 mm
20:30 14.5 °C 13.2 °C 998.5 hPa Calm   3.2 km/h 92% 0 mm
20:35 14.5 °C 13.2 °C 998.9 hPa Calm   3.2 km/h 92% 0 mm
20:40 14.5 °C 13.2 °C 998.5 hPa East 1.6 km/h 3.2 km/h 92% 0 mm
20:45 14.5 °C 13.2 °C 998.5 hPa Calm   3.2 km/h 92% 0 mm
20:50 14.5 °C 13.2 °C 998.9 hPa Calm     92% 0 mm
20:55 14.6 °C 13.3 °C 998.9 hPa Calm     92% 0 mm
21:00 14.6 °C 13.3 °C 998.9 hPa Calm     92% 0 mm
21:05 14.6 °C 13.3 °C 998.9 hPa Calm     92% 0 mm
21:10 14.6 °C 13.3 °C 998.9 hPa Calm     92% 0 mm
21:15 14.5 °C 13.2 °C 998.9 hPa Calm     92% 0 mm
21:20 14.4 °C 13.2 °C 998.9 hPa Calm     92% 0 mm
21:25 14.4 °C 13.2 °C 999.2 hPa Calm     92% 0 mm
21:30 14.5 °C 13.2 °C 999.2 hPa Calm     92% 0 mm
21:35 14.5 °C 13.4 °C 999.2 hPa Calm     93% 0 mm
21:40 14.4 °C 13.3 °C 999.2 hPa Calm     93% 0 mm
21:45 14.5 °C 13.4 °C 999.2 hPa Calm     93% 0 mm
21:50 14.4 °C 13.3 °C 999.2 hPa Calm     93% 0 mm
21:55 14.4 °C 13.3 °C 999.2 hPa Calm     93% 0 mm
22:00 14.4 °C 13.3 °C 999.2 hPa Calm   3.2 km/h 93% 0 mm
22:05 14.4 °C 13.3 °C 999.2 hPa Calm   3.2 km/h 93% 0 mm
22:10 14.3 °C 13.2 °C 999.5 hPa Calm   3.2 km/h 93% 0 mm
22:15 14.2 °C 13.1 °C 999.5 hPa WSW 3.2 km/h 6.4 km/h 93% 0 mm
22:20 14.1 °C 13 °C 999.2 hPa WSW 1.6 km/h 6.4 km/h 93% 0 mm
22:25 14.1 °C 12.8 °C 999.2 hPa WSW 1.6 km/h 6.4 km/h 92% 0 mm
22:30 14 °C 12.7 °C 999.2 hPa Calm     92% 0 mm
22:35 13.9 °C 12.6 °C 999.2 hPa Calm     92% 0 mm
22:40 13.7 °C 12.4 °C 999.2 hPa Calm     92% 0 mm
22:45 13.6 °C 12.3 °C 999.2 hPa Calm     92% 0 mm
22:50 13.4 °C 12.2 °C 999.2 hPa Calm     92% 0 mm
22:55 13.3 °C 12.2 °C 999.2 hPa Calm   1.6 km/h 93% 0 mm
23:00 13.3 °C 12.2 °C 999.2 hPa Calm   1.6 km/h 93% 0 mm
23:05 13.2 °C 12.1 °C 999.5 hPa Calm   4.8 km/h 93% 0 mm
23:10 13.2 °C 12.1 °C 999.5 hPa SW 1.6 km/h 6.4 km/h 93% 0 mm
23:20 13.4 °C 12.3 °C 999.5 hPa WSW 1.6 km/h 8 km/h 93% 0 mm
23:25 13.3 °C 12.2 °C 999.5 hPa WSW 4.8 km/h 12.9 km/h 93% 0 mm
23:30 13.3 °C 12.2 °C 999.5 hPa West 3.2 km/h 11.3 km/h 93% 0 mm
23:35 13.3 °C 12.2 °C 999.5 hPa West 4.8 km/h 14.5 km/h 93% 0 mm
23:40 13.2 °C 12.1 °C 999.5 hPa West 6.4 km/h 12.9 km/h 93% 0 mm
23:45 13.2 °C 12.1 °C 999.5 hPa West 1.6 km/h 8 km/h 93% 0 mm
23:50 13.1 °C 12 °C 999.5 hPa SW 6.4 km/h 6.4 km/h 93% 0 mm
23:55 13.1 °C 11.9 °C 999.5 hPa WSW 3.2 km/h 9.7 km/h 93% 0 mm
Buffalo, New York, USA
Compliments of Weather Underground - 2.5 mb